Time,TemperatureF,DewpointF,PressureIn,WindDirection,WindDirectionDegrees,WindSpeedMPH,WindSpeedGustMPH,Humidity,HourlyPrecipIn,Conditions,Clouds,dailyrainin,SoftwareType,DateUTC
2013-07-27 00:00:00,63.7,54.9,24.28,North,0,0.0,-999.0,73,0.00,,,0.02,,2013-07-27 07:00:00,
2013-07-27 01:00:00,65.3,53.3,24.27,North,0,0.0,-999.0,65,0.00,,,0.02,,2013-07-27 08:00:00,
2013-07-27 02:00:00,65.7,51.9,24.26,North,0,0.0,-999.0,61,0.00,,,0.02,,2013-07-27 09:00:00,
2013-07-27 03:00:00,65.9,52.5,24.25,North,0,0.0,-999.0,62,0.00,,,0.02,,2013-07-27 10:00:00,
2013-07-27 04:00:00,64.8,54.5,24.25,North,0,0.0,-999.0,69,0.00,,,0.02,,2013-07-27 11:00:00,
2013-07-27 05:00:00,65.7,53.6,24.25,North,0,0.0,-999.0,65,0.00,,,0.02,,2013-07-27 12:00:00,
2013-07-27 06:00:00,65.2,54.7,24.25,North,0,0.0,-999.0,69,0.00,,,0.02,,2013-07-27 13:00:00,
2013-07-27 07:05:00,63.2,53.3,24.25,North,0,0.0,-999.0,70,0.00,,,0.02,,2013-07-27 14:05:00,
2013-07-27 08:05:00,63.9,54.7,0.00,North,0,0.0,-999.0,72,0.00,,,0.02,,2013-07-27 15:05:00,
2013-07-27 09:05:00,76.3,58.0,0.00,North,0,0.0,-999.0,53,0.00,,,0.02,,2013-07-27 16:05:00,
2013-07-27 10:05:00,76.0,56.6,0.00,North,0,0.0,-999.0,51,0.00,,,0.02,,2013-07-27 17:05:00,
2013-07-27 11:05:00,73.6,55.8,0.00,North,0,0.0,-999.0,54,0.00,,,0.02,,2013-07-27 18:05:00,
2013-07-27 12:05:00,75.2,56.4,0.00,North,0,0.0,-999.0,52,0.00,,,0.02,,2013-07-27 19:05:00,
2013-07-27 13:05:00,75.8,57.4,0.00,North,0,0.0,-999.0,53,0.00,,,0.02,,2013-07-27 20:05:00,
2013-07-27 14:05:00,78.1,56.8,0.00,North,0,0.0,-999.0,48,0.00,,,0.02,,2013-07-27 21:05:00,
2013-07-27 15:05:00,78.5,54.7,0.00,North,0,0.0,-999.0,44,0.00,,,0.02,,2013-07-27 22:05:00,
2013-07-27 16:05:00,79.4,53.0,0.00,North,0,0.0,-999.0,40,0.00,,,0.02,,2013-07-27 23:05:00,
2013-07-27 17:05:00,78.3,52.1,0.00,North,0,0.0,-999.0,40,0.00,,,0.00,,2013-07-28 00:05:00,
2013-07-27 18:00:00,76.1,51.4,24.16,North,0,0.0,-999.0,42,0.00,,,0.00,,2013-07-28 01:00:00,
2013-07-27 19:00:00,74.0,50.6,24.16,North,0,0.0,-999.0,44,0.00,,,0.00,,2013-07-28 02:00:00,
2013-07-27 20:00:00,71.3,49.3,24.16,North,0,0.0,-999.0,46,0.00,,,0.00,,2013-07-28 03:00:00,
2013-07-27 21:00:00,68.6,48.7,24.16,North,0,0.0,-999.0,49,0.00,,,0.00,,2013-07-28 04:00:00,
2013-07-27 22:00:00,67.1,49.4,24.17,North,0,0.0,-999.0,53,0.00,,,0.00,,2013-07-28 05:00:00,
2013-07-27 23:00:00,67.3,48.6,24.17,North,0,0.0,-999.0,51,0.00,,,0.00,,2013-07-28 06:00:00,